FENGYUN 1C DEB, 30567

Orbit data source: Space-Track

FENGYUN 1C DEB, 30567 is space debris in SSO originally from a launch on Mon, 10 May 1999 UTC launched from the Taiyaun Space Center, China (TSC). Fengyun 1C debris stems from the Chinese weather satellite Fengyun-1C, which was intentionally destroyed by a Chinese anti-satellite missile in 2007. This event dramatically increased the amount of space debris, with thousands of trackable fragments posing hazards to satellites and human spaceflight. The Fengyun 1C debris cloud has become a focal point in discussions about space sustainability and the need for international regulations to prevent the creation of new debris.

Loading next visibility...
Identifier
30567, 1999-025ALH
Orbit
SSO
Country
Flag of CNCN / PRC
Related business
Manufacturer
Unknown
Mission
Spacecraft
Bus & Motor
Unknown
Mass
Unknown
Launch date (UTC)
1999-05-10 (27 years ago)
Launch vehicle
Unknown
Launch site
Taiyaun Space Center, China (TSC)
Object type
Payload
Rocket body
Debris
Shape & HBR
Unknown shape, 0.1 m
Radar Cross Section
Medium (>0.1 m² and <1 m²)

Expand to show TLE details & history
Last TLE update: 14 hours ago

TLE from 14 hours ago
0 FENGYUN 1C DEB
1 30567U 99025ALH 26237.43065845  .00000403  00000-0  24350-3 0  9995
2 30567  98.7944 226.7940 0108377 187.1840 328.9185 14.09149720  3746
Epoch: 2026-08-25T10:20Z
TLE epoch observation values (Epoch: 2026-08-25T10:20:08.890Z)
Latitude
24.26514°
Longitude
-77.96342°
Altitude
798.215 km
Speed
7.491 km/s
True Right ascension
03h 23m 05s
True Declination
24° 08' 14"
Sunlit
Object was in daylight at epoch
Visualization orbit readout
Latitude
Unknown
Longitude
Unknown
Altitude
Unknown
Speed
Unknown
Apparent Right ascension
Unknown
Apparent Declination
Unknown
Sunlit
N/A
Visualization observer readout
Local Sidereal Time
15:54:54
Azimuth
Unknown
Elevation
Unknown
Doppler factor
Unknown
Orbital elements
Apogee altitude
937.898 km
Perigee altitude
781.021 km
Semi-major axis
7,237.597 km
Eccentricity
0.01084
Inclination
98.7944°
RAAN
226.794°
Arg. of periapsis
187.184°
True anomaly
328.26985°
Mean anomaly
328.9185°
Eccentric anomaly
328.59493°
Mean motion
3.52494 °/min
Orbital period
102.13 mins
BSTAR
0.0002435
Loading maneuver chart data...
Computing Atmospheric mass density...

Documentation

Showing up to 5 results
|